| time (UTC) | temp F | wind direction | speed MPH | gust MPH | rain 1hr in | rain 24hr in | rain mn in | humidity % | barometer mb |
| 20260504050509 | 52 | 164 | 1.0 | 4.0 | 0.00 | 0.00 | 0.00 | 53 | 1016.4 |
| 20260504045507 | 52 | 193 | 2.0 | 6.0 | 0.00 | 0.00 | 0.00 | 53 | 1016.3 |
| 20260504045011 | 53 | 193 | 2.0 | 6.0 | 0.00 | 0.00 | 0.00 | 53 | 1016.3 |
| 20260504044537 | 53 | 208 | 2.0 | 5.0 | 0.00 | 0.00 | 0.00 | 53 | 1016.3 |
| 20260504044007 | 53 | 98 | 1.0 | 5.0 | 0.00 | 0.00 | 0.00 | 53 | 1016.4 |
| 20260504043508 | 53 | 178 | 2.0 | 5.0 | 0.00 | 0.00 | 0.00 | 53 | 1016.4 |
| 20260504043033 | 52 | 171 | 2.0 | 5.0 | 0.00 | 0.00 | 0.00 | 53 | 1016.4 |
| 20260504042509 | 52 | 183 | 1.0 | 8.0 | 0.00 | 0.00 | 0.00 | 54 | 1016.4 |
| 20260504042009 | 52 | 162 | 2.0 | 8.0 | 0.00 | 0.00 | 0.00 | 54 | 1016.4 |
| 20260504041529 | 52 | 172 | 3.0 | 8.0 | 0.00 | 0.00 | 0.00 | 55 | 1016.4 |
| 20260504041006 | 52 | 128 | 1.0 | 3.0 | 0.00 | 0.00 | 0.00 | 56 | 1016.4 |
| 20260504040512 | 52 | 161 | 1.0 | 5.0 | 0.00 | 0.00 | 0.00 | 56 | 1016.3 |
| 20260504040013 | 52 | 134 | 1.0 | 5.0 | 0.00 | 0.00 | 0.00 | 57 | 1016.3 |
| 20260504035513 | 52 | 175 | 2.0 | 5.0 | 0.00 | 0.00 | 0.00 | 55 | 1016.3 |
| 20260504035009 | 51 | 163 | 0.0 | 3.0 | 0.00 | 0.00 | 0.00 | 57 | 1016.4 |
| 20260504034512 | 51 | 140 | 1.0 | 3.0 | 0.00 | 0.00 | 0.00 | 57 | 1016.3 |
| 20260504034006 | 51 | 196 | 1.0 | 6.0 | 0.00 | 0.00 | 0.00 | 56 | 1016.3 |
| 20260504033515 | 51 | 159 | 0.0 | 6.0 | 0.00 | 0.00 | 0.00 | 57 | 1016.4 |
| 20260504033016 | 51 | 180 | 0.0 | 2.0 | 0.00 | 0.00 | 0.00 | 57 | 1016.5 |
| 20260504032509 | 51 | 207 | 0.0 | 2.0 | 0.00 | 0.00 | 0.00 | 57 | 1016.4 |
| 20260504032013 | 51 | 145 | 0.0 | 3.0 | 0.00 | 0.00 | 0.00 | 56 | 1016.4 |
| 20260504031515 | 51 | 150 | 0.0 | 3.0 | 0.00 | 0.00 | 0.00 | 57 | 1016.4 |
| 20260504031008 | 51 | 150 | 0.0 | 3.0 | 0.00 | 0.00 | 0.00 | 59 | 1016.4 |
| 20260504030508 | 51 | 133 | 0.0 | 3.0 | 0.00 | 0.00 | 0.00 | 58 | 1016.4 |
| 20260504030016 | 51 | 174 | 1.0 | 3.0 | 0.00 | 0.00 | 0.00 | 59 | 1016.3 |
| 20260504025506 | 51 | 170 | 0.0 | 2.0 | 0.00 | 0.00 | 0.00 | 59 | 1016.3 |
| 20260504025003 | 51 | 184 | 0.0 | 2.0 | 0.00 | 0.00 | 0.00 | 58 | 1016.4 |
| 20260504024505 | 51 | 167 | 0.0 | 2.0 | 0.00 | 0.00 | 0.00 | 58 | 1016.4 |
| 20260504024007 | 51 | 170 | 0.0 | 3.0 | 0.00 | 0.00 | 0.00 | 58 | 1016.4 |
| 20260504023507 | 51 | 140 | 0.0 | 3.0 | 0.00 | 0.00 | 0.00 | 58 | 1016.4 |
| 20260504023004 | 51 | 164 | 0.0 | 2.0 | 0.00 | 0.00 | 0.00 | 59 | 1016.4 |
| 20260504022504 | 50 | 176 | 1.0 | 2.0 | 0.00 | 0.00 | 0.00 | 60 | 1016.4 |
| 20260504022003 | 50 | 113 | 0.0 | 2.0 | 0.00 | 0.00 | 0.00 | 60 | 1016.4 |
| 20260504021504 | 50 | 142 | 0.0 | 0.0 | 0.00 | 0.00 | 0.00 | 62 | 1016.3 |
| 20260504021002 | 50 | 142 | 0.0 | 0.0 | 0.00 | 0.00 | 0.00 | 63 | 1016.3 |
| 20260504020503 | 50 | 142 | 0.0 | 0.0 | 0.00 | 0.00 | 0.00 | 63 | 1016.3 |
| 20260504020008 | 50 | 142 | 0.0 | 0.0 | 0.00 | 0.00 | 0.00 | 62 | 1016.3 |
| 20260504015503 | 50 | 142 | 0.0 | 0.0 | 0.00 | 0.00 | 0.00 | 63 | 1016.2 |
| 20260504015002 | 50 | 142 | 0.0 | 0.0 | 0.00 | 0.00 | 0.00 | 63 | 1016.1 |
| 20260504014507 | 49 | 142 | 0.0 | 0.0 | 0.00 | 0.00 | 0.00 | 64 | 1016.1 |
| 20260504014003 | 50 | 142 | 0.0 | 0.0 | 0.00 | 0.00 | 0.00 | 63 | 1016.2 |
| 20260504013503 | 50 | 142 | 0.0 | 0.0 | 0.00 | 0.00 | 0.00 | 63 | 1016.2 |
| 20260504013009 | 50 | 142 | 0.0 | 0.0 | 0.00 | 0.00 | 0.00 | 62 | 1016.2 |
| 20260504012504 | 50 | 142 | 0.0 | 0.0 | 0.00 | 0.00 | 0.00 | 61 | 1016.2 |
| 20260504012004 | 50 | 142 | 0.0 | 0.0 | 0.00 | 0.00 | 0.00 | 62 | 1016.1 |
| 20260504011509 | 51 | 142 | 0.0 | 0.0 | 0.00 | 0.00 | 0.00 | 61 | 1016.1 |
| 20260504011007 | 51 | 142 | 0.0 | 0.0 | 0.00 | 0.00 | 0.00 | 60 | 1016.1 |
| 20260504010503 | 51 | 142 | 0.0 | 0.0 | 0.00 | 0.00 | 0.00 | 60 | 1016.1 |
| 20260504010009 | 51 | 142 | 0.0 | 0.0 | 0.00 | 0.00 | 0.00 | 60 | 1016.1 |
| 20260504005503 | 52 | 142 | 0.0 | 0.0 | 0.00 | 0.00 | 0.00 | 59 | 1016.0 |
| 20260504005005 | 52 | 142 | 0.0 | 0.0 | 0.00 | 0.00 | 0.00 | 59 | 1016.1 |
| 20260504004511 | 52 | 142 | 0.0 | 0.0 | 0.00 | 0.00 | 0.00 | 58 | 1016.1 |
| 20260504004004 | 52 | 142 | 0.0 | 0.0 | 0.00 | 0.00 | 0.00 | 58 | 1016.1 |
| 20260504003506 | 53 | 142 | 0.0 | 1.0 | 0.00 | 0.00 | 0.00 | 58 | 1016.0 |
| 20260504003007 | 53 | 142 | 0.0 | 1.0 | 0.00 | 0.00 | 0.00 | 57 | 1015.9 |
| 20260504002503 | 53 | 142 | 0.0 | 1.0 | 0.00 | 0.00 | 0.00 | 57 | 1015.9 |
| 20260504002006 | 54 | 142 | 0.0 | 1.0 | 0.00 | 0.00 | 0.00 | 56 | 1015.8 |
| 20260504001511 | 54 | 142 | 0.0 | 1.0 | 0.00 | 0.00 | 0.00 | 55 | 1015.8 |
| 20260504001004 | 55 | 142 | 0.0 | 1.0 | 0.00 | 0.00 | 0.00 | 54 | 1015.8 |
| 20260504000505 | 55 | 142 | 0.0 | 1.0 | 0.00 | 0.00 | 0.00 | 53 | 1015.8 |
| 20260504000014 | 56 | 142 | 0.0 | 1.0 | 0.00 | 0.00 | 0.00 | 52 | 1015.7 |
| 20260503235503 | 57 | 142 | 0.0 | 1.0 | 0.00 | 0.00 | 0.00 | 51 | 1015.6 |
| 20260503235004 | 57 | 142 | 0.0 | 1.0 | 0.00 | 0.00 | 0.00 | 50 | 1015.6 |
| 20260503234512 | 58 | 142 | 0.0 | 1.0 | 0.00 | 0.00 | 0.00 | 47 | 1015.6 |
| 20260503234006 | 58 | 142 | 0.0 | 0.0 | 0.00 | 0.00 | 0.00 | 44 | 1015.5 |
| 20260503233505 | 59 | 142 | 0.0 | 0.0 | 0.00 | 0.00 | 0.00 | 42 | 1015.5 |
| 20260503233009 | 59 | 142 | 0.0 | 0.0 | 0.00 | 0.00 | 0.00 | 41 | 1015.5 |
| 20260503232506 | 59 | 142 | 0.0 | 1.0 | 0.00 | 0.00 | 0.00 | 41 | 1015.6 |
| 20260503232011 | 60 | 142 | 0.0 | 1.0 | 0.00 | 0.00 | 0.00 | 40 | 1015.6 |
| 20260503231514 | 60 | 139 | 0.0 | 3.0 | 0.00 | 0.00 | 0.00 | 40 | 1015.6 |
| 20260503231004 | 60 | 139 | 0.0 | 3.0 | 0.00 | 0.00 | 0.00 | 38 | 1015.5 |
| 20260503230505 | 60 | 139 | 1.0 | 3.0 | 0.00 | 0.00 | 0.00 | 37 | 1015.4 |
| 20260503230014 | 61 | 76 | 0.0 | 4.0 | 0.00 | 0.00 | 0.00 | 37 | 1015.4 |
| 20260503225504 | 61 | 44 | 0.0 | 4.0 | 0.00 | 0.00 | 0.00 | 37 | 1015.5 |
| 20260503225004 | 61 | 24 | 1.0 | 4.0 | 0.00 | 0.00 | 0.00 | 37 | 1015.6 |
| 20260503224515 | 61 | 352 | 0.0 | 4.0 | 0.00 | 0.00 | 0.00 | 36 | 1015.6 |
| 20260503224007 | 61 | 350 | 1.0 | 5.0 | 0.00 | 0.00 | 0.00 | 36 | 1015.6 |
| 20260503223507 | 61 | 321 | 0.0 | 5.0 | 0.00 | 0.00 | 0.00 | 36 | 1015.6 |
| 20260503223008 | 61 | 138 | 1.0 | 5.0 | 0.00 | 0.00 | 0.00 | 35 | 1015.6 |
| 20260503222510 | 61 | 31 | 0.0 | 5.0 | 0.00 | 0.00 | 0.00 | 34 | 1015.6 |
| 20260503222006 | 61 | 318 | 2.0 | 5.0 | 0.00 | 0.00 | 0.00 | 34 | 1015.6 |
| 20260503221510 | 61 | 5 | 0.0 | 2.0 | 0.00 | 0.00 | 0.00 | 37 | 1015.6 |
| 20260503221008 | 61 | 163 | 0.0 | 3.0 | 0.00 | 0.00 | 0.00 | 35 | 1015.6 |
| 20260503220508 | 62 | 321 | 0.0 | 3.0 | 0.00 | 0.00 | 0.00 | 33 | 1015.7 |
| 20260503220009 | 62 | 321 | 0.0 | 4.0 | 0.00 | 0.00 | 0.00 | 34 | 1015.7 |
| 20260503215505 | 62 | 336 | 1.0 | 4.0 | 0.00 | 0.00 | 0.00 | 35 | 1015.7 |
| 20260503215008 | 62 | 200 | 0.0 | 8.0 | 0.00 | 0.00 | 0.00 | 36 | 1015.8 |
| 20260503214509 | 62 | 183 | 0.0 | 8.0 | 0.00 | 0.00 | 0.00 | 35 | 1015.7 |
| 20260503214008 | 62 | 161 | 1.0 | 4.0 | 0.00 | 0.00 | 0.00 | 33 | 1015.7 |
| 20260503213505 | 62 | 125 | 1.0 | 4.0 | 0.00 | 0.00 | 0.00 | 35 | 1015.7 |
| 20260503213025 | 62 | 26 | 0.0 | 6.0 | 0.00 | 0.00 | 0.00 | 34 | 1015.8 |
| 20260503212505 | 62 | 273 | 2.0 | 6.0 | 0.00 | 0.00 | 0.00 | 33 | 1015.7 |
| 20260503212006 | 62 | 156 | 0.0 | 6.0 | 0.00 | 0.00 | 0.00 | 33 | 1015.6 |
| 20260503211518 | 62 | 310 | 3.0 | 6.0 | 0.00 | 0.00 | 0.00 | 31 | 1015.7 |
| 20260503211011 | 62 | 5 | 2.0 | 8.0 | 0.00 | 0.00 | 0.00 | 32 | 1015.7 |
| 20260503210509 | 62 | 348 | 2.0 | 8.0 | 0.00 | 0.00 | 0.00 | 32 | 1015.8 |
| 20260503210014 | 62 | 311 | 3.0 | 8.0 | 0.00 | 0.00 | 0.00 | 32 | 1015.8 |
| 20260503205507 | 62 | 111 | 0.0 | 11.0 | 0.00 | 0.00 | 0.00 | 34 | 1015.7 |
| 20260503205010 | 62 | 360 | 2.0 | 11.0 | 0.00 | 0.00 | 0.00 | 30 | 1015.8 |
| 20260503204515 | 62 | 355 | 3.0 | 11.0 | 0.00 | 0.00 | 0.00 | 33 | 1015.8 |
| 20260503204010 | 62 | 350 | 1.0 | 11.0 | 0.00 | 0.00 | 0.00 | 32 | 1015.7 |
| 20260503203507 | 62 | 27 | 3.0 | 9.0 | 0.00 | 0.00 | 0.00 | 33 | 1015.8 |
| 20260503203016 | 62 | 311 | 0.0 | 13.0 | 0.00 | 0.00 | 0.00 | 33 | 1015.7 |
| 20260503202509 | 62 | 360 | 4.0 | 13.0 | 0.00 | 0.00 | 0.00 | 31 | 1016.0 |
| 20260503202009 | 63 | 338 | 5.0 | 12.0 | 0.00 | 0.00 | 0.00 | 30 | 1016.0 |
| 20260503201527 | 63 | 291 | 1.0 | 10.0 | 0.00 | 0.00 | 0.00 | 31 | 1016.0 |
| 20260503201008 | 62 | 190 | 1.0 | 9.0 | 0.00 | 0.00 | 0.00 | 33 | 1016.1 |
| 20260503200509 | 62 | 360 | 1.0 | 9.0 | 0.00 | 0.00 | 0.00 | 34 | 1016.0 |
| 20260503200027 | 62 | 330 | 4.0 | 9.0 | 0.00 | 0.00 | 0.00 | 34 | 1016.2 |
| 20260503195507 | 62 | 355 | 3.0 | 11.0 | 0.00 | 0.00 | 0.00 | 33 | 1016.2 |
| 20260503195007 | 62 | 28 | 3.0 | 11.0 | 0.00 | 0.00 | 0.00 | 33 | 1016.4 |
| 20260503194527 | 62 | 229 | 0.0 | 9.0 | 0.00 | 0.00 | 0.00 | 36 | 1016.4 |
| 20260503194007 | 62 | 339 | 2.0 | 9.0 | 0.00 | 0.00 | 0.00 | 34 | 1016.5 |
| 20260503193506 | 62 | 277 | 1.0 | 6.0 | 0.00 | 0.00 | 0.00 | 36 | 1016.4 |
| 20260503193020 | 61 | 118 | 2.0 | 6.0 | 0.00 | 0.00 | 0.00 | 34 | 1016.5 |
| 20260503192509 | 62 | 325 | 2.0 | 10.0 | 0.00 | 0.00 | 0.00 | 35 | 1016.7 |
| 20260503192015 | 61 | 341 | 4.0 | 10.0 | 0.00 | 0.00 | 0.00 | 33 | 1016.6 |
| 20260503191522 | 61 | 355 | 2.0 | 10.0 | 0.00 | 0.00 | 0.00 | 38 | 1016.7 |
| 20260503191009 | 60 | 348 | 3.0 | 10.0 | 0.00 | 0.00 | 0.00 | 35 | 1016.8 |
| 20260503190509 | 61 | 27 | 2.0 | 10.0 | 0.00 | 0.00 | 0.00 | 34 | 1017.1 |
| 20260503190023 | 60 | 341 | 2.0 | 8.0 | 0.00 | 0.00 | 0.00 | 35 | 1017.2 |
| 20260503185507 | 60 | 340 | 2.0 | 8.0 | 0.00 | 0.00 | 0.00 | 35 | 1017.2 |
| 20260503185009 | 61 | 355 | 2.0 | 10.0 | 0.00 | 0.00 | 0.00 | 36 | 1017.3 |
| 20260503184526 | 61 | 215 | 2.0 | 10.0 | 0.00 | 0.00 | 0.00 | 37 | 1017.4 |
| 20260503184006 | 60 | 24 | 3.0 | 10.0 | 0.00 | 0.00 | 0.00 | 35 | 1017.5 |
| 20260503183515 | 60 | 277 | 4.0 | 8.0 | 0.00 | 0.00 | 0.00 | 38 | 1017.3 |
| 20260503183027 | 61 | 355 | 1.0 | 6.0 | 0.00 | 0.00 | 0.00 | 39 | 1017.4 |
| 20260503182509 | 61 | 24 | 1.0 | 5.0 | 0.00 | 0.00 | 0.00 | 36 | 1017.5 |
| 20260503182009 | 61 | 315 | 2.0 | 6.0 | 0.00 | 0.00 | 0.00 | 38 | 1017.4 |
| 20260503181535 | 60 | 34 | 0.0 | 6.0 | 0.00 | 0.00 | 0.00 | 37 | 1017.6 |
| 20260503181008 | 60 | 334 | 2.0 | 9.0 | 0.00 | 0.00 | 0.00 | 37 | 1017.7 |
| 20260503180508 | 59 | 26 | 2.0 | 9.0 | 0.00 | 0.00 | 0.00 | 38 | 1017.6 |
| 20260503180024 | 59 | 343 | 4.0 | 9.0 | 0.00 | 0.00 | 0.00 | 36 | 1017.7 |
| 20260503175507 | 60 | 11 | 4.0 | 10.0 | 0.00 | 0.00 | 0.00 | 37 | 1017.7 |
| 20260503175009 | 59 | 86 | 3.0 | 10.0 | 0.00 | 0.00 | 0.00 | 41 | 1017.7 |
| 20260503174504 | 58 | 345 | 2.0 | 9.0 | 0.00 | 0.00 | 0.00 | 36 | 1017.7 |
| 20260503174003 | 59 | 309 | 3.0 | 9.0 | 0.00 | 0.00 | 0.00 | 37 | 1017.8 |
| 20260503173502 | 60 | 340 | 0.0 | 8.0 | 0.00 | 0.00 | 0.00 | 41 | 1017.7 |
| 20260503173013 | 59 | 346 | 3.0 | 8.0 | 0.00 | 0.00 | 0.00 | 43 | 1017.7 |
| 20260503172506 | 58 | 40 | 2.0 | 8.0 | 0.00 | 0.00 | 0.00 | 40 | 1017.8 |
| 20260503172006 | 58 | 9 | 2.0 | 8.0 | 0.00 | 0.00 | 0.00 | 40 | 1017.9 |
| 20260503171504 | 58 | 5 | 3.0 | 8.0 | 0.00 | 0.00 | 0.00 | 43 | 1017.9 |
| 20260503171004 | 58 | 10 | 1.0 | 8.0 | 0.00 | 0.00 | 0.00 | 45 | 1017.9 |
| 20260503170508 | 58 | 5 | 0.0 | 9.0 | 0.00 | 0.00 | 0.00 | 42 | 1018.1 |
| 20260503151010 | 54 | 35 | 1.0 | 10.0 | 0.00 | 0.00 | 0.00 | 42 | 1018.8 |
| 20260503150507 | 54 | 329 | 4.0 | 11.0 | 0.00 | 0.00 | 0.00 | 42 | 1018.8 |
| 20260503131010 | 49 | 348 | 1.0 | 11.0 | 0.00 | 0.00 | 0.00 | 56 | 1018.8 |
| 20260503130503 | 49 | 324 | 1.0 | 11.0 | 0.00 | 0.00 | 0.00 | 58 | 1018.8 |
| 20260503110508 | 39 | 19 | 0.0 | 0.0 | 0.00 | 0.00 | 0.00 | 87 | 1017.8 |
| 20260503090508 | 45 | 300 | 0.0 | 0.0 | 0.00 | 0.00 | 0.00 | 67 | 1015.7 |
| 20260503081527 | 48 | 24 | 1.0 | 4.0 | 0.00 | 0.00 | 0.00 | 60 | 1015.3 |
| 20260503081007 | 48 | 302 | 0.0 | 6.0 | 0.00 | 0.00 | 0.00 | 60 | 1015.3 |
| 20260503080511 | 48 | 294 | 1.0 | 6.0 | 0.00 | 0.00 | 0.00 | 60 | 1015.3 |
| 20260503072509 | 49 | 312 | 1.0 | 3.0 | 0.00 | 0.00 | 0.00 | 59 | 1015.0 |
| 20260503072009 | 49 | 340 | 1.0 | 4.0 | 0.00 | 0.00 | 0.00 | 59 | 1014.9 |
| 20260503071535 | 50 | 38 | 0.0 | 4.0 | 0.00 | 0.00 | 0.00 | 59 | 1014.6 |
| 20260503071008 | 50 | 339 | 1.0 | 4.0 | 0.00 | 0.00 | 0.00 | 59 | 1014.6 |
| 20260503070508 | 50 | 328 | 0.0 | 7.0 | 0.00 | 0.00 | 0.00 | 59 | 1014.6 |